Regional Weather Roundup
Issued by NWS State College, PA

Home | Current Version | Previous Version | Text Only | Print | Product List | Glossary On
Versions: 1 2 3 4 5 6 7 8 9 10 11 12 13 14 15 16 17 18 19 20 21 22 23 24 25 26 27 28 29 30 31 32 33 34 35 36 37 38 39 40 41 42 43 44 45 46 47 48 49 50
000
ASUS41 KCTP 191703
RWRCTP
REGIONAL WEATHER ROUNDUP
NATIONAL WEATHER SERVICE STATE COLLEGE PA
1200 PM EST FRI JAN 19 2018

Note: "fair" indicates few or no clouds below 12,000 feet with no
significant weather and/or obstructions to visibility.

* = STATION THAT DOES NOT REPORT PRECIPITATION /E.G. RAIN...SNOW...ETC/
    THUNDER OR FOG.

PAZ002>004-007>009-013>016-020>023-029>032-191800-
WESTERN PENNSYLVANIA

CITY           SKY/WX    TMP DP  RH WIND       PRES   REMARKS
ERIE           FAIR      31  16  54 S18G24    29.98F
MEADVILLE      FAIR      27  15  61 S14G22    29.99F
FRANKLIN*      FAIR      31  16  54 SW14G21   30.01F
NEW CASTLE     FAIR      34  15  46 S8        30.07F
BEAVER COUNTY  SUNNY     32  16  51 S10       30.06F
BUTLER*        FAIR      33  15  47 SW13G20   30.06F
PITTSBURGH INT FAIR      31  14  49 S13       30.07F
PITTSBURGH     FAIR      30  12  47 SW17G24   30.08F
INDIANA*       SUNNY     30  16  55 W15G24    30.09F
LATROBE        SUNNY     32  14  47 SW17G23   30.11F
WASHINGTON CO* FAIR      35  14  42 SW12      30.13F
$$

PAZ004>006-010>012-017>019-024>028-033>037-041-042-045-046-049>053-191800-
CENTRAL PENNSYLVANIA

CITY           SKY/WX    TMP DP  RH WIND       PRES   REMARKS
BRADFORD       FAIR      28  15  58 SW9G18    29.92F
DUBOIS         FAIR      27  14  58 SW18      29.99F WCI  14
CLEARFIELD     FAIR      31  14  49 SW10      30.01F
JOHNSTOWN      FAIR      32  15  49 W17G29    29.99F
ALTOONA        FAIR      35  19  52 SW12      30.03F
STATE COLLEGE  SUNNY     34  18  51 SW17      30.02F
WILLIAMSPORT   FAIR      33  16  49 W14       30.03F
SELINSGROVE    FAIR      37  15  40 W6        30.05F
FT INDIANTOWN  FAIR      36  17  45 SW9       30.05F
CAPITAL CITY   FAIR      39  17  41 W12       30.06F
HARRISBURG     FAIR      38  19  46 NW9       30.06F
YORK           FAIR      37  18  46 W3        30.06F
$$

PAZ038>040-043-044-047-048-054-055-060>062-067>071-191800-
EASTERN PENNSYLVANIA

CITY           SKY/WX    TMP DP  RH WIND       PRES   REMARKS
SCRANTON       FAIR      29  15  56 SW13      29.99F
MOUNT POCONO   FAIR      26  15  63 W21       29.91F WCI  12
ALLENTOWN      LGT RAIN  34  17  50 SW10      30.04F
QUAKERTOWN*    FAIR      32  16  51 MISG      30.05F
READING        FAIR      37  18  46 W12       30.04F
LANCASTER      FAIR      36  20  52 W8        30.06F
COATESVILLE    FAIR      37  16  41 W10       30.06F
POTTSTOWN      FAIR      35  17  47 W7        30.07F
BLUE BELL      FAIR      36  18  48 W7        30.08F
DOYLESTOWN     FAIR      35  16  45 W9G16     30.04F
WILLOW GROVE   NOT AVBL
NORTH PHILA    FAIR      40  18  41 W16       30.09F
PHILADELPHIA   PTSUNNY   41  14  33 W16       30.08F
$$



USA.gov is the U.S. government's official web portal to all federal, state and local government web resources and services.